TimeEDT,TemperatureF,Dew PointF,Humidity,Sea Level PressureIn,VisibilityMPH,Wind Direction,Wind SpeedMPH,Gust SpeedMPH,PrecipitationIn,Events,Conditions,WindDirDegrees,DateUTC
12:58 AM,74.7,71.8,91,29.75,10.0,SSW,6.9,-,N/A,,Partly Cloudy,200,2013-09-22 04:58:00
1:58 AM,74.8,72.7,93,29.75,10.0,SW,4.6,-,N/A,,Scattered Clouds,220,2013-09-22 05:58:00
2:03 AM,75.2,73.4,94,29.74,10.0,SSW,4.6,-,N/A,,Mostly Cloudy,210,2013-09-22 06:03:00
2:28 AM,75.2,73.4,94,29.73,10.0,SW,4.6,-,N/A,,Scattered Clouds,220,2013-09-22 06:28:00
2:37 AM,75.2,73.4,94,29.73,10.0,SW,4.6,-,N/A,,Light Drizzle,220,2013-09-22 06:37:00
2:58 AM,74.7,73.2,95,29.74,10.0,SW,3.5,-,0.00,,Light Drizzle,220,2013-09-22 06:58:00
3:02 AM,75.2,73.4,94,29.73,10.0,SW,2.3,-,N/A,,Partly Cloudy,230,2013-09-22 07:02:00
3:22 AM,75.2,73.4,94,29.72,10.0,Variable,3.5,-,N/A,,Mostly Cloudy,0,2013-09-22 07:22:00
3:47 AM,75.2,73.4,94,29.72,10.0,SW,6.9,-,N/A,,Mostly Cloudy,220,2013-09-22 07:47:00
3:58 AM,74.5,73.0,95,29.73,10.0,SW,5.8,-,0.00,,Partly Cloudy,220,2013-09-22 07:58:00
4:33 AM,75.2,73.4,94,29.71,10.0,SW,5.8,-,N/A,,Mostly Cloudy,230,2013-09-22 08:33:00
4:48 AM,75.2,73.4,94,29.71,10.0,WSW,5.8,-,N/A,,Mostly Cloudy,240,2013-09-22 08:48:00
4:58 AM,74.3,72.9,95,29.72,10.0,SSW,3.5,-,N/A,,Mostly Cloudy,200,2013-09-22 08:58:00
5:58 AM,73.9,72.5,95,29.73,10.0,West,5.8,-,N/A,,Mostly Cloudy,260,2013-09-22 09:58:00
6:43 AM,73.4,71.6,94,29.73,10.0,WSW,5.8,-,N/A,,Mostly Cloudy,250,2013-09-22 10:43:00
6:58 AM,73.4,72.1,96,29.74,10.0,WSW,4.6,-,N/A,,Scattered Clouds,250,2013-09-22 10:58:00
7:12 AM,73.4,71.6,94,29.73,10.0,West,4.6,-,N/A,,Light Drizzle,260,2013-09-22 11:12:00
7:53 AM,73.4,73.4,100,29.74,10.0,WSW,4.6,-,N/A,,Partly Cloudy,250,2013-09-22 11:53:00
7:58 AM,73.4,72.7,98,29.75,10.0,WSW,4.6,-,0.00,,Scattered Clouds,240,2013-09-22 11:58:00
8:07 AM,73.4,73.4,100,29.74,10.0,WSW,4.6,-,N/A,,Light Drizzle,250,2013-09-22 12:07:00
8:12 AM,73.4,73.4,100,29.75,10.0,WSW,3.5,-,N/A,,Light Drizzle,250,2013-09-22 12:12:00
8:24 AM,73.4,73.4,100,29.75,10.0,WSW,4.6,-,N/A,,Mostly Cloudy,250,2013-09-22 12:24:00
8:44 AM,73.4,73.4,100,29.75,10.0,WSW,4.6,-,N/A,,Overcast,250,2013-09-22 12:44:00
8:49 AM,73.4,73.4,100,29.75,10.0,WSW,4.6,-,N/A,,Overcast,250,2013-09-22 12:49:00
8:58 AM,73.9,73.0,97,29.76,10.0,West,4.6,-,0.01,,Overcast,270,2013-09-22 12:58:00
9:18 AM,73.4,73.4,100,29.75,10.0,WNW,5.8,-,N/A,,Overcast,290,2013-09-22 13:18:00
9:37 AM,73.4,71.6,94,29.75,10.0,WNW,6.9,-,N/A,,Light Drizzle,300,2013-09-22 13:37:00
9:54 AM,75.2,73.4,94,29.76,10.0,NW,6.9,-,N/A,,Overcast,310,2013-09-22 13:54:00
9:58 AM,74.5,72.9,95,29.77,10.0,NW,5.8,-,0.00,,Overcast,310,2013-09-22 13:58:00
10:03 AM,75.2,73.4,94,29.76,10.0,NW,5.8,-,N/A,,Overcast,310,2013-09-22 14:03:00
10:18 AM,73.4,71.6,94,29.77,10.0,North,9.2,-,N/A,,Overcast,360,2013-09-22 14:18:00
10:29 AM,73.4,69.8,88,29.77,10.0,North,6.9,-,N/A,,Light Drizzle,360,2013-09-22 14:29:00
10:45 AM,73.4,69.8,88,29.77,10.0,NNE,6.9,-,N/A,,Overcast,20,2013-09-22 14:45:00
10:49 AM,73.4,69.8,88,29.77,10.0,NNE,5.8,-,N/A,Rain,Light Rain,20,2013-09-22 14:49:00
10:54 AM,73.4,71.6,94,29.77,10.0,NNE,5.8,-,N/A,Rain,Light Rain,20,2013-09-22 14:54:00
10:58 AM,73.2,71.1,93,29.79,9.0,NNE,4.6,-,0.00,Rain,Light Rain,30,2013-09-22 14:58:00
11:08 AM,73.4,71.6,94,29.78,6.0,North,8.1,-,N/A,Rain,Rain,350,2013-09-22 15:08:00
11:58 AM,71.4,70.0,95,29.78,8.0,North,8.1,-,0.06,Rain,Light Rain,360,2013-09-22 15:58:00
12:08 PM,71.6,69.8,94,29.77,10.0,North,6.9,-,N/A,Rain,Light Rain,10,2013-09-22 16:08:00
12:23 PM,71.6,69.8,94,29.77,10.0,Variable,4.6,-,N/A,,Light Drizzle,0,2013-09-22 16:23:00
12:32 PM,71.6,69.8,94,29.77,10.0,Variable,5.8,-,N/A,,Overcast,0,2013-09-22 16:32:00
12:53 PM,71.6,69.8,94,29.77,10.0,North,5.8,-,N/A,,Light Drizzle,10,2013-09-22 16:53:00
12:58 PM,72.3,70.0,92,29.78,8.0,Variable,4.6,-,0.01,,Light Drizzle,0,2013-09-22 16:58:00
1:15 PM,71.6,69.8,94,29.77,10.0,North,5.8,-,N/A,,Overcast,360,2013-09-22 17:15:00
1:24 PM,71.6,69.8,94,29.77,10.0,North,4.6,-,N/A,,Light Drizzle,360,2013-09-22 17:24:00
1:29 PM,71.6,69.8,94,29.77,9.0,North,4.6,-,N/A,,Light Drizzle,360,2013-09-22 17:29:00
1:39 PM,71.6,69.8,94,29.77,4.0,NNE,3.5,-,N/A,Rain,Light Rain,20,2013-09-22 17:39:00
1:52 PM,71.6,69.8,94,29.77,9.0,North,3.5,-,N/A,,Overcast,10,2013-09-22 17:52:00
1:58 PM,72.0,70.2,94,29.78,10.0,North,2.3,-,0.01,,Overcast,360,2013-09-22 17:58:00
2:34 PM,73.4,69.8,88,29.76,8.0,NW,2.3,-,N/A,,Light Drizzle,320,2013-09-22 18:34:00
2:50 PM,71.6,69.8,94,29.76,8.0,NNW,2.3,-,N/A,,Overcast,340,2013-09-22 18:50:00
2:55 PM,71.6,69.8,94,29.76,10.0,Calm,Calm,-,N/A,,Overcast,0,2013-09-22 18:55:00
2:58 PM,72.3,69.8,92,29.77,10.0,Calm,Calm,-,0.00,,Overcast,0,2013-09-22 18:58:00
3:13 PM,73.4,71.6,94,29.76,10.0,West,2.3,-,N/A,,Overcast,270,2013-09-22 19:13:00
3:18 PM,73.4,69.8,88,29.76,10.0,West,3.5,-,N/A,,Overcast,270,2013-09-22 19:18:00
3:48 PM,73.4,71.6,94,29.76,10.0,West,3.5,-,N/A,,Overcast,260,2013-09-22 19:48:00
3:58 PM,73.4,71.6,94,29.77,10.0,Variable,2.3,-,N/A,,Overcast,0,2013-09-22 19:58:00
4:28 PM,73.4,71.6,94,29.76,10.0,NW,9.2,-,N/A,,Overcast,320,2013-09-22 20:28:00
4:43 PM,73.4,69.8,88,29.76,10.0,NNW,6.9,-,N/A,,Overcast,330,2013-09-22 20:43:00
4:58 PM,74.8,70.0,85,29.77,10.0,NW,4.6,-,N/A,,Mostly Cloudy,320,2013-09-22 20:58:00
5:13 PM,75.2,69.8,83,29.76,10.0,WNW,6.9,-,N/A,,Scattered Clouds,300,2013-09-22 21:13:00
5:18 PM,75.2,69.8,83,29.77,10.0,WNW,5.8,-,N/A,,Mostly Cloudy,300,2013-09-22 21:18:00
5:38 PM,75.2,68.0,78,29.76,10.0,NW,5.8,-,N/A,,Scattered Clouds,320,2013-09-22 21:38:00
5:58 PM,75.2,68.7,80,29.77,10.0,NW,3.5,-,N/A,,Clear,310,2013-09-22 21:58:00
6:58 PM,73.9,69.6,86,29.79,10.0,West,3.5,-,N/A,,Mostly Cloudy,270,2013-09-22 22:58:00
7:58 PM,71.2,69.8,95,29.81,10.0,Calm,Calm,-,N/A,,Scattered Clouds,0,2013-09-22 23:58:00
8:58 PM,70.5,69.4,96,29.83,10.0,Calm,Calm,-,N/A,,Mostly Cloudy,0,2013-09-23 00:58:00
9:58 PM,70.0,69.4,98,29.84,10.0,Calm,Calm,-,N/A,,Clear,0,2013-09-23 01:58:00
10:58 PM,69.6,69.3,99,29.85,10.0,Calm,Calm,-,N/A,,Clear,0,2013-09-23 02:58:00
11:58 PM,68.9,68.4,98,29.85,10.0,NW,2.3,-,N/A,,Clear,310,2013-09-23 03:58:00